Location: Manningford Bruce
(51.3000°N, 1.8000°W)
Time: 04:58:19
(UTC+00:00)

Daily predictions for brighter satellites

Satellite Brightness Start Highest point End
(mag) Time Altitude Azimuth Time Altitude Azimuth Time Altitude Azimuth
Cosmos 1025 Rocket 3.1 00:02:18 10° N 00:06:21 71° NE 00:06:21 71° NE
Cosmos 1464 Rocket 3.9 00:05:13 54° SSW 00:06:44 79° W 00:12:57 10° N
USA 267 3.7 00:01:40 10° ENE 00:08:05 60° NNW 00:14:30 10° W
SJ 16-02 3.2 00:09:53 20° E 00:09:53 20° E 00:12:38 10° NE
Okean 2 Rocket 3.2 00:10:41 68° E 00:10:41 68° E 00:15:01 10° NNE
Cosmos 1538 Rocket 3.8 00:05:32 10° NNW 00:10:43 78° WSW 00:11:04 74° SSW
SL-16 R/B 2.5 00:06:21 10° NNW 00:12:02 65° NE 00:13:48 43° ESE
Nadezhda 4 Rocket 3.9 00:08:05 10° NNW 00:14:22 77° W 00:15:44 56° SSW
Cosmos 1975 3.8 00:15:44 38° WNW 00:15:44 38° WNW 00:19:28 10° N
Cosmos 158 Rocket 4.4 00:23:04 10° NNW 00:28:25 60° ENE 00:29:59 43° ESE
Cosmos 2297 Rocket 2.1 00:28:55 65° S 00:29:40 76° ESE 00:35:21 10° NNE
Sich 1 Rocket 4.0 00:30:37 51° WNW 00:30:39 51° WNW 00:34:58 10° N
Cosmos 2344 4.3 00:21:44 10° NW 00:31:01 70° SW 00:38:10 30° SSE
ALOS 2 4.3 00:33:27 23° W 00:33:27 23° W 00:36:36 10° NW
Cosmos 1980 4.3 00:28:03 10° NW 00:33:16 39° WSW 00:33:21 39° WSW
COSMOS 2428 4.5 00:29:57 10° WNW 00:33:41 18° W 00:33:49 18° W
Cosmos 1092 Rocket 3.9 00:28:53 10° N 00:35:09 84° W 00:36:34 56° S
Cosmos 2112 Rocket 4.4 00:30:04 10° NNW 00:35:15 57° ENE 00:36:46 41° ESE
YAOGAN 11 4.4 00:35:46 57° W 00:35:46 57° W 00:40:07 10° NNW
In-Cosmos 22 4.0 00:30:11 10° NNW 00:35:44 71° W 00:36:23 64° SW
DNEPR-1 R/B 4.5 00:33:50 10° NW 00:38:57 44° WSW 00:38:57 44° WSW
Cosmos 2034 Rocket 4.2 00:37:47 48° SW 00:39:28 65° WNW 00:45:49 10° N
Cosmos 2237 Rocket 2.9 00:36:07 10° NW 00:41:12 36° WSW 00:41:12 36° WSW
Cosmos 2219 3.1 00:41:47 58° SW 00:42:56 80° WNW 00:48:36 10° NNE
Cosmos 2151 Rocket 3.5 00:43:30 80° WNW 00:43:30 80° WNW 00:47:50 10° N
Meteor 1-15 Rocket 4.3 00:43:07 53° SE 00:44:08 63° E 00:49:39 10° NNE
Helios 1A 4.0 00:45:29 35° WNW 00:45:29 35° WNW 00:48:49 10° NNW
Meteor 1-24 Rocket 4.2 00:42:03 10° N 00:47:20 49° ENE 00:49:07 35° ESE
Meteor 1-29 4.5 00:46:39 10° NNE 00:49:04 31° ENE 00:49:04 31° ENE
Cosmos 1536 Rocket 4.0 00:45:56 10° NNW 00:49:46 50° WNW 00:49:46 50° WNW
Cosmos 1680 Rocket 3.4 00:45:14 10° NNW 00:50:30 83° ENE 00:51:28 60° SE
Lacrosse 4 Rocket 4.2 00:47:55 10° WNW 00:50:30 16° NNW 00:53:04 10° N
Cosmos 1674 3.2 00:46:51 10° N 00:49:53 57° NNW 00:49:53 57° NNW
CZ-4 R/B 3.8 00:45:40 10° NNE 00:50:43 84° ESE 00:51:18 70° S
Cosmos 2333 Rocket 4.5 00:50:27 10° W 00:51:18 10° W 00:51:29 10° W
Cosmos 1461 3.5 00:55:29 51° ESE 00:55:29 51° ESE 00:59:33 10° NE
Cosmos 1777 Rocket 4.4 00:56:11 46° WSW 00:57:22 57° WNW 01:02:38 10° NNE
TIMED 4.4 00:53:22 10° NNW 00:57:37 82° WNW 00:57:37 82° WNW
ATLAS 3B R/B 4.2 00:55:15 10° W 01:01:09 33° NNW 01:07:11 10° NE
PSLV R/B 3.8 01:01:00 10° N 01:05:41 66° WNW 01:06:13 61° WSW
CZ-2D R/B 3.4 01:01:17 10° NNE 01:06:12 32° E 01:08:00 26° SE
Cosmos 1375 Rocket 4.5 01:05:51 48° SSW 01:07:53 85° SE 01:14:32 10° NE
Cosmos 1766 3.4 01:11:18 66° ENE 01:11:18 66° ENE 01:14:53 10° NNE
Cosmos 1943 4.0 01:05:40 10° NNW 01:11:07 48° NE 01:16:10 12° SE
SL-16 R/B 2.9 01:09:25 28° SE 01:12:50 64° ENE 01:19:02 10° NNW
Cosmos 1607 4.4 01:08:01 10° NW 01:14:03 43° WSW 01:14:32 43° SW
Cosmos 1733 3.5 01:14:34 63° ENE 01:14:34 63° ENE 01:18:10 10° NNE
Cosmos 1626 2.4 01:11:53 10° N 01:15:17 67° NNE 01:15:17 67° NNE
Cosmos 1655 Rocket 4.2 01:09:27 10° N 01:15:44 69° ENE 01:18:27 35° SSE
Cosmos 2227 Rocket 2.5 01:18:31 41° WSW 01:20:18 60° NW 01:25:56 10° NNE
Cosmos 923 Rocket 4.4 01:18:28 10° NW 01:23:31 45° WSW 01:23:41 44° WSW
Meteor 2-5 Rocket 3.6 01:18:17 10° NNW 01:23:52 70° W 01:25:03 53° SSW
Cosmos 1470 4.0 01:24:18 32° ESE 01:24:49 33° E 01:28:26 10° NNE
Helios 1B rocket 2.6 01:21:49 10° N 01:25:51 58° WNW 01:25:58 58° W
Meteor 1-22 Rocket 4.2 01:25:04 48° SSE 01:26:25 68° E 01:31:48 10° NNE
Cosmos 2026 Rocket 4.3 01:21:51 10° NNW 01:27:41 48° W 01:29:05 41° SW
Cosmos 2279 Rocket 3.9 01:29:43 46° SSW 01:31:45 86° W 01:38:01 10° N
Cosmos 1805 3.5 01:32:08 57° WNW 01:32:08 57° WNW 01:35:50 10° N
Resurs 1-4 Rocket 2.4 01:34:37 10° NNE 01:39:50 57° E 01:41:36 38° SSE
Cosmos 2180 Rocket 4.4 01:39:58 43° S 01:42:12 90° E 01:48:23 10° N
Cosmos 2098 Rocket 3.9 01:37:46 10° N 01:43:16 83° E 01:46:32 32° SSE
NOSS 2-3 (E) 4.2 01:44:49 41° SE 01:45:25 44° ESE 01:50:15 10° NE
Cosmos 2082 3.9 01:44:36 40° WSW 01:46:31 63° NW 01:52:08 10° NNE
Okean 1 Rocket 3.7 01:46:41 39° W 01:47:09 40° WNW 01:51:19 10° N
SJ 16-02 1.7 01:46:52 48° W 01:47:35 54° WNW 01:51:56 10° NNE
NOSS 3-1 (C) 3.3 01:48:09 44° SSW 01:50:05 80° SE 01:56:40 10° NE
USA 267 3.9 01:44:17 10° E 01:50:40 57° N 01:57:03 10° WNW
SL-14 R/B 3.7 01:49:04 10° NNW 01:52:33 47° W 01:52:33 47° W
Meteor 2-19 Rocket 4.5 01:47:10 10° NNW 01:53:16 65° W 01:55:33 39° SSW
SL-16 R/B 3.3 01:51:06 10° NW 01:55:38 26° WSW 01:55:38 26° WSW
Cosmos 2263 Rocket 2.6 01:56:40 34° SSE 01:58:45 51° ESE 02:04:09 10° NE
MOZ.5/SAFIR/RUBIN 5/SL-8 4.1 02:00:53 43° WSW 02:01:26 45° W 02:06:00 10° NNW
CZ-4C R/B 3.1 02:05:30 59° W 02:05:30 59° W 02:09:04 10° NNW
Okean 1-7 Rocket 3.7 02:03:36 10° NNW 02:07:56 54° W 02:08:38 48° SW
Cosmos 1809 Rocket 4.4 02:03:00 10° N 02:09:09 84° E 02:13:15 22° SSE
Cosmos 1937 Rocket 3.5 02:07:18 41° SSW 02:09:12 84° WNW 02:14:34 10° NNE
NOSS 2-3 (D) 3.8 02:08:30 45° S 02:09:39 62° SE 02:14:45 10° NE
COBE Rocket 3.7 02:08:32 32° SSE 02:10:42 85° ENE 02:15:23 10° NNW
SL-08 R/B 4.5 02:06:23 10° SE 02:11:03 44° ENE 02:15:44 10° N
Cosmos 1626 Rocket 3.5 02:07:00 10° N 02:11:21 82° E 02:13:03 36° SSE
ADEOS II 2.9 02:06:21 10° NNE 02:11:25 45° E 02:14:31 22° SSE
Cosmos 990 Rocket 4.2 02:09:50 37° WSW 02:11:39 58° WNW 02:16:46 10° NNE
Cosmos 1455 Rocket 3.1 02:12:38 47° SW 02:13:45 68° WNW 02:18:14 10° N
Cosmos 2297 Rocket 3.7 02:10:42 15° W 02:14:19 28° NW 02:19:09 10° NNE
CZ-4B R/B 3.7 02:09:46 10° NNE 02:14:27 56° ESE 02:16:40 29° SSE
ATLAS CENTAUR R/B 2.8 02:13:46 23° SE 02:14:44 25° ESE 02:18:01 10° ENE
Cosmos 1726 2.6 02:14:19 40° SSE 02:15:17 53° E 02:18:52 10° NNE
UNK 4.1 02:17:20 40° SW 02:18:13 45° W 02:22:44 10° NNW
Cosmos 2266 Rocket 4.1 02:13:48 10° NNW 02:20:00 58° W 02:22:57 31° SSW
GEOS 3 Rocket 3.8 02:20:25 10° NE 02:25:51 70° SE 02:28:25 32° SSW
Cosmos 1898 Rocket 4.0 02:24:13 31° WSW 02:26:24 49° WNW 02:31:28 10° NNE
Meteor 1-21 Rocket 4.1 02:22:10 10° NNW 02:27:45 85° WSW 02:31:40 20° S
Meteor 2-21 4.4 02:21:41 10° NNW 02:27:46 83° W 02:32:11 20° S
Cosmos 468 4.5 02:22:31 10° NNW 02:27:50 87° ENE 02:33:08 10° SSE
USA 229 DEB 3.7 02:24:11 28° SW 02:27:55 78° NW 02:34:57 10° NE
USA 229 3.7 02:24:18 28° SW 02:28:01 78° NW 02:35:02 10° NE
CBERS-1 4.2 02:23:08 10° NNE 02:28:16 67° ESE 02:31:10 26° S
Cosmos 2084 4.3 02:28:47 29° S 02:30:20 40° SE 02:34:30 10° ENE
Meteor 2-10 4.2 02:27:12 27° S 02:30:21 81° E 02:36:07 10° NNE
ARIANE 5 R/B 3.8 02:26:53 10° NNE 02:31:45 37° E 02:36:11 12° SSE
Cosmos 1758 Rocket 4.1 02:29:51 10° N 02:34:08 56° ENE 02:38:14 11° SSE
Cosmos 1461 4.4 02:31:50 19° W 02:34:24 34° NW 02:38:40 10° NNE
Cosmos 1603 4.1 02:31:16 10° NW 02:36:38 42° WSW 02:39:05 27° SSW
NOSS 2-3 (C) 3.7 02:35:34 35° SW 02:37:30 84° NW 02:42:53 10° NE
NOSS 3-1 (A) 3.4 02:36:02 29° SW 02:39:09 84° NW 02:45:51 10° NE
Cosmos 494 Rocket 4.2 02:37:58 10° NNW 02:43:09 74° ENE 02:48:21 10° SSE
Cosmos 1340 Rocket 3.5 02:42:43 32° WSW 02:43:48 39° WNW 02:47:32 10° N
Cosmos 2150 Rocket 4.2 02:42:28 24° S 02:45:33 69° ESE 02:50:49 10° NNE
Cosmos 1758 3.9 02:44:28 33° WSW 02:45:38 42° WNW 02:49:29 10° N
CZ-2D R/B 2.6 02:41:09 10° N 02:46:26 48° WNW 02:49:19 25° SW
H-2A R/B 3.8 02:45:21 10° SE 02:49:00 32° ENE 02:52:41 10° N
Cosmos 1703 3.2 02:45:45 10° N 02:49:44 85° E 02:52:42 17° SSE
Cosmos 1825 Rocket 3.8 02:48:23 10° N 02:52:43 68° ENE 02:57:01 10° SSE
Cosmos 1943 3.8 02:49:58 10° NW 02:55:03 36° WSW 02:57:52 22° SSW
SL-16 R/B 3.5 02:54:31 23° SW 02:56:54 28° W 03:02:13 10° NW
Nadezhda 2 Rocket 4.5 02:51:26 10° NNW 02:57:35 66° W 03:02:51 14° S
Cosmos 1125 Rocket 3.9 02:54:00 18° S 02:57:50 59° ESE 03:03:02 10° NNE
USA 215 4.2 02:53:03 10° ENE 02:59:00 36° SE 03:03:50 15° SSW
IRS-1C 4.2 02:54:14 10° NNE 02:59:37 78° ESE 03:03:50 17° S
Cosmos 1470 4.2 02:59:40 22° W 03:00:56 26° WNW 03:04:19 10° NNW
Cosmos 1953 2.5 02:59:36 29° SW 03:01:27 55° WNW 03:05:28 10° N
IRS-1D 3.6 02:57:42 10° N 03:02:46 65° WNW 03:06:07 22° SSW
Cosmos 1328 3.7 02:59:33 10° NNW 03:03:35 81° W 03:07:02 14° S
Cosmos 1953 Rocket 4.1 02:59:42 10° N 03:04:11 62° ENE 03:08:36 10° SSE
NPP 4.3 03:00:20 10° N 03:05:21 40° WNW 03:08:34 20° WSW
Cosmos 2227 Rocket 4.3 03:01:42 10° WNW 03:05:35 18° NNW 03:09:28 10° NNE
CZ-2D R/B 4.1 03:05:15 10° NNE 03:09:09 49° E 03:12:51 11° S
USA 238 DEB 4.4 03:11:32 10° NW 03:18:36 61° NE 03:25:57 10° ESE
USA 238 4.4 03:11:38 10° NW 03:18:42 61° NE 03:26:03 10° ESE
Resurs 1-4 Rocket 3.4 03:14:58 10° N 03:19:22 27° WNW 03:22:40 15° WSW
Meteor 2-8 Rocket 4.5 03:15:17 10° S 03:21:24 87° ESE 03:27:33 10° N
NOSS 8 (F) 4.2 03:20:18 24° SSW 03:22:00 68° SE 03:25:01 10° NE
Atlas Centaur 2 4.4 03:20:44 10° S 03:22:47 11° S 03:24:56 10° SSE
Cosmos 1606 Rocket 3.6 03:19:25 12° S 03:23:34 83° E 03:28:03 10° NNE
CENTAUR R/B 4.0 03:17:08 10° NW 03:24:37 54° NNE 03:33:02 10° ESE
SJ 16-02 3.8 03:26:01 10° WNW 03:27:13 11° NW 03:28:25 10° NNW
IDEFIX/ARIANE 42P 2.8 03:23:02 10° NNE 03:28:16 74° ESE 03:33:29 10° S
USA 267 3.3 03:26:55 10° ESE 03:33:29 89° NE 03:40:05 10° WNW
MSX 4.3 03:28:23 10° NNE 03:34:08 61° ESE 03:39:50 10° S
Cosmos 1908 3.6 03:31:24 17° SW 03:34:10 48° WNW 03:37:59 10° N
COSMOS 2406 4.4 03:29:53 10° NNW 03:35:25 48° NE 03:40:54 10° SE
Cosmos 1417 Rocket 4.5 03:29:26 10° SSW 03:35:43 77° W 03:41:58 10° N
Cosmos 1726 Rocket 3.6 03:33:47 10° S 03:38:15 88° W 03:42:45 10° N
IRS-P3 4.5 03:33:17 10° N 03:38:28 52° WNW 03:43:08 13° SW
Cosmos 2228 3.1 03:36:23 11° SSW 03:40:31 67° WNW 03:44:56 10° N
Cosmos 2263 Rocket 3.1 03:38:22 13° WSW 03:42:54 36° NW 03:48:02 10° NNE
Cosmos 1844 4.2 03:38:03 10° SSW 03:43:44 62° ESE 03:49:26 10° NE
Meteor 1-28 Rocket 4.3 03:41:32 14° SSW 03:44:10 27° W 03:47:28 10° NW
Cosmos 1386 Rocket 4.4 03:39:24 10° NNW 03:45:22 65° W 03:51:18 10° S
CZ-2C R/B 2.8 03:44:02 10° NNE 03:47:53 79° ESE 03:51:38 10° S
SL-08 R/B 4.3 03:44:37 10° SSW 03:48:59 30° W 03:53:21 10° NNW
Cosmos 1726 4.1 03:48:49 11° W 03:50:49 15° WNW 03:53:01 10° NNW
ADEOS II 3.0 03:46:19 10° N 03:51:00 33° WNW 03:55:27 11° WSW
Cosmos 1356 Rocket 3.4 03:46:55 10° SSW 03:51:03 70° WNW 03:55:08 10° N
Spot 4 Rocket 4.1 03:47:25 10° NNE 03:52:35 72° WNW 03:57:43 10° SSW
ATLAS CENTAUR R/B 1.7 03:49:57 13° WSW 03:53:27 50° NW 03:57:12 10° NE
Cosmos 1300 2.6 03:50:23 10° SSW 03:54:12 83° W 03:58:03 10° N
ERS-2 2.1 03:53:49 10° S 03:57:27 69° WSW 04:01:07 10° NNW
Cosmos 1269 Rocket 4.3 03:53:40 10° NNW 03:58:45 49° WSW 04:03:50 10° S
CZ-4C R/B 3.2 03:57:09 10° S 04:00:21 46° W 04:03:41 10° NNW
COSMOS 2441 4.4 03:58:15 10° NNE 04:03:07 90° ESE 04:07:57 10° SSW
Cosmos 2278 Rocket 4.2 04:00:22 10° SSE 04:05:00 27° ESE 04:09:41 10° NE
Cosmos 1076 Rocket 4.5 04:00:49 10° N 04:05:07 53° ENE 04:09:23 10° SSE
Cosmos 1844 Rocket 2.7 03:59:54 10° SSW 04:05:29 81° WNW 04:11:07 10° NNE
Cosmos 2251 Rocket 4.1 04:00:41 10° NNW 04:06:03 67° ENE 04:11:24 10° SE
Cosmos 1553 Rocket 4.4 04:00:42 10° SW 04:06:29 44° WNW 04:12:23 10° N
SAR-Lupe-4 4.3 04:03:54 10° SSE 04:07:25 59° ENE 04:10:59 10° N
Cosmos 1833 Rocket 3.5 04:02:16 10° NNW 04:07:51 57° NE 04:13:24 10° SE
NOSS 3-2 (A) 4.1 04:02:04 10° NW 04:09:26 84° SW 04:17:49 10° SE
NOSS 2-2 (C) 3.5 04:06:11 10° SSW 04:09:42 62° SE 04:13:44 10° NE
Cosmos 2084 4.3 04:05:36 10° WSW 04:09:51 44° NW 04:14:09 10° NE
Lacrosse 5 rocket 4.0 04:07:45 10° SSE 04:10:43 17° SE 04:13:42 10° E
ARIANE 5 R/B 3.3 04:06:02 10° N 04:10:53 39° WNW 04:15:42 10° SW
USA 281 4.3 04:04:56 10° NE 04:11:11 44° ESE 04:17:23 10° S
SeaSat 1 3.7 04:09:35 10° NE 04:14:16 41° ESE 04:18:54 10° S
NOSS 8 (H) 4.3 04:11:38 10° SW 04:14:40 60° NW 04:17:45 10° NE
NOSS 3-2 (C) 4.2 04:12:13 10° NW 04:19:33 83° NE 04:27:56 10° SE
Cosmos 1867 3.6 04:17:10 10° NW 04:22:35 62° SW 04:27:56 10° SSE
